[[{"header":{"parameterUnit":"m.s-1","parameterCategory":1,"la1":30.2991,"la2":30.254,"lo1":-89.0895,"lo2":-89.0444,"dy":0.0017,"dx":0.0017,"nx":28,"ny":28,"refTime":"2025-06-14T09:00:00:Z","depth":0,"parameterNumber":2,"parameterNumberName":"U-component_of_WINDS"},"data":[0,0,0,0,0,0,0,0,0,0,0,0,0,0,0,0,0,0,0,0,0,0,0,0,0,0,0,0,0,0,0,0,0,0,0,0,0,0,0,0,0,0,0,0,0,0,0,0,0,0,0,0,0,0,0,0,0,0,1.6858,1.6859,0,1.6929,1.6929,1.693,1.6969,1.6969,1.697,1.697,1.704,1.7042,1.7043,0,0,0,0,0,0,0,0,0,0,0,0,0,1.6757,1.6759,1.6858,1.6859,1.686,1.6929,1.6929,1.693,1.6969,1.6969,1.697,1.697,1.7039,1.7041,1.7043,0,0,0,0,0,0,0,0,0,0,0,0,0,1.6811,1.6759,1.6858,1.6888,1.6891,1.6928,1.693,1.6931,1.6969,1.6969,1.697,1.697,1.7039,1.7041,1.7044,1.7056,0,0,1.7052,1.7053,0,0,0,0,0,0,0,0,1.6808,1.6815,1.6883,1.6886,1.689,1.694,1.692,1.6973,1.6969,1.694,1.697,1.697,1.7007,1.7012,1.7025,1.706,1.7063,1.7052,1.7054,1.7055,1.7056,0,0,0,0,0,0,0,1.6804,1.6812,1.6886,1.6883,1.6888,1.6897,1.6905,1.693,1.6971,1.6942,1.6945,1.6953,1.7008,1.7022,1.7026,1.7064,1.7052,1.7054,1.7056,1.7057,1.7114,1.7114,0,0,0,0,0,0,1.6796,1.6809,1.6884,1.6888,1.6849,1.6899,1.6908,1.6924,1.6971,1.6978,1.6953,1.6955,1.7017,1.7023,1.7029,1.7048,1.7055,1.7057,1.7059,1.7114,1.7114,1.7114,0,0,0,0,0,0,1.6794,1.6802,1.6881,1.6849,1.686,1.6901,1.6918,1.6925,1.6939,1.6979,1.6986,1.6959,1.7018,1.7025,1.705,1.7051,1.7058,1.7061,1.7114,1.7114,1.7114,1.7085,0,0,0,0,0,0,1.6791,1.6801,1.6807,1.6849,1.6862,1.6901,1.6918,1.6926,1.6943,1.6946,1.6987,1.6994,1.7018,1.7046,1.7052,1.7055,1.7063,1.7114,1.7114,1.7114,1.7086,1.7084,1.7082,0,0,0,0,0,1.6787,1.6795,1.6807,1.6815,1.6869,1.6901,1.6908,1.6936,1.6943,1.6949,1.6975,1.6992,1.705,1.7048,1.7056,1.7059,1.7114,1.7114,1.7114,1.7087,1.7084,1.7082,0,0,0,0,0,0,1.675,1.6801,1.6815,1.6837,1.6864,1.6907,1.6915,1.6933,1.6958,1.696,1.6994,1.7003,1.7024,1.7044,1.7041,1.7074,1.7084,1.7085,1.706,1.7058,1.7056,1.7051,1.7065,0,0,0,0,0,1.6745,1.6766,1.6809,1.6825,1.6838,1.6874,1.6889,1.6909,1.6938,1.695,1.6978,1.7005,1.703,1.7045,1.707,1.7089,1.7099,1.7095,1.7093,1.7091,1.7092,1.7104,1.7103,1.7114,1.7114,1.7114,0,0,1.6734,1.6764,1.6775,1.6818,1.6842,1.6863,1.6883,1.6905,1.6921,1.6953,1.6978,1.7,1.7033,1.7055,1.7066,1.7072,1.7091,1.7091,1.7089,1.7091,1.7104,1.7103,1.7102,1.7114,1.7114,1.7114,0,0,1.6724,1.6749,1.6765,1.6789,1.6825,1.6849,1.6853,1.6894,1.691,1.6936,1.696,1.698,1.7021,1.7044,1.7061,1.7062,1.7079,1.7069,1.7058,1.707,1.7069,1.7069,1.7069,1.7069,1.7069,1.7069,1.7069,0,1.6705,1.6739,1.6771,1.6792,1.681,1.6841,1.6858,1.6879,1.692,1.6932,1.6939,1.6992,1.7016,1.7045,1.7045,1.7058,1.7063,1.7064,1.7067,1.7067,1.7067,1.7068,1.7068,1.7068,1.7068,1.7068,1.7068,0,1.6715,1.6738,1.6747,1.6787,1.6807,1.6825,1.686,1.6875,1.6894,1.6917,1.6944,1.6975,1.7006,1.7015,1.7032,1.7046,1.7049,1.706,1.7071,1.7064,1.7065,1.7066,1.7066,1.7066,1.7067,1.7067,0,0,1.6683,1.6743,1.6745,1.6764,1.6807,1.6825,1.6846,1.6878,1.6891,1.6919,1.6937,1.6971,1.6983,1.7002,1.7023,1.7034,1.7033,1.7045,1.7046,1.7042,1.7051,1.7041,1.7041,1.7045,1.7045,1.7046,1.7048,0,1.668,1.6718,1.6748,1.6775,1.6797,1.6827,1.6845,1.6873,1.6896,1.6918,1.6943,1.6967,1.698,1.6993,1.7004,1.7031,1.7036,1.7031,1.7062,1.7063,1.7053,1.7042,1.7032,1.7033,1.7049,1.7049,1.7049,0,1.6681,1.6709,1.6739,1.678,1.6791,1.6806,1.6838,1.6859,1.6892,1.6908,1.693,1.6952,1.6975,1.6984,1.7016,1.7012,1.7027,1.7042,1.7042,1.7046,1.7055,1.7046,1.7034,1.7034,1.705,1.705,1.705,0,1.6655,1.6701,1.6724,1.674,1.6789,1.6799,1.682,1.6853,1.6871,1.6899,1.6911,1.6941,1.6957,1.698,1.701,1.7014,1.7039,1.705,1.7053,1.7052,1.7057,1.7056,1.7047,1.7066,1.7066,1.7066,1.7066,0,1.6649,1.6665,1.6714,1.6728,1.6748,1.6782,1.6801,1.6824,1.6854,1.6873,1.6901,1.6919,1.6957,1.698,1.7003,1.7027,1.7034,1.7047,1.7053,1.7045,1.7043,1.7054,1.7055,1.7066,1.7066,1.7066,1.7066,0,1.6623,1.6656,1.6684,1.6729,1.674,1.6753,1.6791,1.6807,1.6832,1.6856,1.6864,1.6903,1.6931,1.6963,1.7001,1.7017,1.7039,1.7047,1.7028,1.7031,1.7032,1.7032,1.703,1.7032,1.7049,1.7049,1.7049,0,1.6616,1.663,1.6677,1.6693,1.6713,1.6737,1.6756,1.6791,1.6809,1.6848,1.6859,1.6889,1.6915,1.6958,1.699,1.702,1.7029,1.7027,1.7034,1.7025,1.703,1.7028,1.703,1.7025,1.7024,1.7024,1.7024,0,1.6601,1.6617,1.6643,1.6676,1.6698,1.6724,1.6752,1.6763,1.6804,1.6823,1.6852,1.6873,1.6913,1.6942,1.6976,1.6998,1.7017,1.7021,1.7024,1.7015,1.7003,1.701,1.7022,1.7021,1.7021,1.7022,1.7022,1.7022,1.6585,1.6599,1.6635,1.6663,1.6688,1.6714,1.6731,1.6759,1.6784,1.682,1.6839,1.6868,1.6902,1.6949,1.697,1.6994,1.7,1.7003,1.7004,1.7004,1.7002,1.7,1.7,1.7,1.7,1.7,1.7,0,1.6571,1.6596,1.6622,1.6661,1.6684,1.6702,1.6734,1.6751,1.6777,1.6807,1.6833,1.6867,1.6897,1.6931,1.6963,1.6975,1.6985,1.6982,1.6981,1.6986,1.6994,1.6989,1.6973,1.6973,1.6973,1.6973,1.6973,1.6973,1.6567,1.6592,1.6613,1.6651,1.6675,1.6705,1.6722,1.6746,1.677,1.6808,1.6833,1.6855,1.6887,1.6922,1.695,1.6959,1.697,1.6964,1.6976,1.6983,1.6985,1.6987,1.6983,1.6966,1.6966,1.6966,1.6966,1.6966]},{"header":{"parameterUnit":"m.s-1","parameterCategory":1,"la1":30.2991,"la2":30.254,"lo1":-89.0895,"lo2":-89.0444,"dy":0.0017,"dx":0.0017,"nx":28,"ny":28,"refTime":"2025-06-14T09:00:00:Z","depth":0,"parameterNumber":3,"parameterNumberName":"V-component_of_WINDS"},"data":[0,0,0,0,0,0,0,0,0,0,0,0,0,0,0,0,0,0,0,0,0,0,0,0,0,0,0,0,0,0,0,0,0,0,0,0,0,0,0,0,0,0,0,0,0,0,0,0,0,0,0,0,0,0,0,0,0,0,1.7003,1.7003,0,1.6979,1.6979,1.6979,1.6959,1.6959,1.6959,1.6959,1.6933,1.6932,1.6932,0,0,0,0,0,0,0,0,0,0,0,0,0,1.7031,1.703,1.7003,1.7003,1.7003,1.6979,1.6979,1.6979,1.6959,1.6959,1.6959,1.6959,1.6933,1.6933,1.6932,0,0,0,0,0,0,0,0,0,0,0,0,0,1.7014,1.703,1.7003,1.699,1.6989,1.6979,1.6979,1.6979,1.6959,1.6959,1.6959,1.6958,1.6933,1.6933,1.6932,1.6933,0,0,1.693,1.6929,0,0,0,0,0,0,0,0,1.7015,1.7013,1.6992,1.6991,1.699,1.6972,1.6979,1.6963,1.6959,1.697,1.6959,1.6958,1.6946,1.6944,1.694,1.6932,1.6931,1.693,1.6929,1.6929,1.6929,0,0,0,0,0,0,0,1.7016,1.7014,1.6994,1.6992,1.699,1.6985,1.6982,1.6976,1.696,1.6969,1.6968,1.6965,1.6945,1.6941,1.694,1.6931,1.693,1.6929,1.6928,1.6928,1.6921,1.6921,0,0,0,0,0,0,1.702,1.7015,1.6995,1.6993,1.7002,1.6985,1.6982,1.6978,1.696,1.6957,1.6966,1.6965,1.6943,1.6941,1.6939,1.6938,1.6929,1.6928,1.6928,1.6921,1.6921,1.6921,0,0,0,0,0,0,1.702,1.7018,1.6996,1.7004,1.7,1.6985,1.698,1.6978,1.6974,1.6957,1.6954,1.6965,1.6942,1.694,1.6935,1.6937,1.6928,1.6927,1.6921,1.6921,1.6921,1.6939,0,0,0,0,0,0,1.7021,1.7018,1.7019,1.7004,1.7,1.6992,1.6981,1.6977,1.6972,1.6971,1.6956,1.6953,1.6942,1.6936,1.6934,1.6936,1.6926,1.692,1.6921,1.6921,1.6938,1.6939,1.6941,0,0,0,0,0,1.7022,1.7025,1.7019,1.7017,1.7001,1.6993,1.699,1.6978,1.6973,1.6973,1.6963,1.6953,1.6937,1.6935,1.6933,1.6935,1.692,1.6921,1.6921,1.6937,1.6939,1.6941,0,0,0,0,0,0,1.7041,1.7023,1.7016,1.7014,1.7005,1.6989,1.6989,1.6981,1.6973,1.6972,1.6956,1.6953,1.6949,1.6942,1.694,1.6935,1.6927,1.6928,1.694,1.6942,1.6944,1.6946,1.6926,0,0,0,0,0,1.7044,1.704,1.7024,1.7024,1.702,1.7005,1.7001,1.6993,1.6982,1.6978,1.6968,1.6958,1.695,1.6946,1.6938,1.6937,1.6932,1.6937,1.6938,1.694,1.694,1.6938,1.6939,1.6923,1.6923,1.6923,0,0,1.7052,1.7042,1.704,1.7027,1.7019,1.7014,1.7002,1.6998,1.6993,1.6978,1.6972,1.6964,1.6952,1.6948,1.6946,1.6941,1.6943,1.6941,1.6942,1.6941,1.6938,1.694,1.6941,1.6924,1.6924,1.6924,0,0,1.7064,1.7056,1.7054,1.7046,1.7034,1.7025,1.7025,1.701,1.7004,1.6998,1.6986,1.6981,1.6969,1.696,1.6954,1.6962,1.6953,1.696,1.6969,1.6967,1.6968,1.6969,1.6971,1.6972,1.696,1.696,1.6961,0,1.7075,1.7067,1.7054,1.705,1.7045,1.7031,1.7028,1.7021,1.7007,1.7004,1.6999,1.6983,1.6974,1.6968,1.697,1.6966,1.6964,1.6962,1.6969,1.697,1.697,1.6972,1.6973,1.6961,1.6961,1.6961,1.6961,0,1.7081,1.7076,1.7076,1.7063,1.7058,1.7055,1.7041,1.7037,1.7028,1.7019,1.7013,1.7001,1.6991,1.6989,1.6981,1.6981,1.6979,1.6972,1.6964,1.6973,1.6974,1.6975,1.6963,1.6962,1.6962,1.6962,0,0,1.7103,1.7083,1.7084,1.7077,1.7063,1.7058,1.7054,1.7044,1.7041,1.7031,1.7027,1.7017,1.701,1.7004,1.6994,1.6992,1.6998,1.6985,1.6985,1.6988,1.6997,1.7002,1.7003,1.6992,1.6992,1.6992,1.6998,0,1.7112,1.7104,1.7093,1.7089,1.7083,1.7069,1.7066,1.7056,1.7047,1.7041,1.7031,1.7024,1.7016,1.7012,1.7009,1.6998,1.7,1.6998,1.6987,1.6987,1.699,1.7004,1.7009,1.7015,1.6998,1.6999,1.6999,0,1.7121,1.7113,1.7108,1.7094,1.7091,1.7088,1.7078,1.7072,1.7061,1.7054,1.7047,1.7036,1.7031,1.7024,1.7015,1.7014,1.7009,1.7003,1.7003,1.7001,1.6993,1.7002,1.7017,1.7018,1.6999,1.6999,1.6999,0,1.7137,1.7125,1.712,1.7115,1.7099,1.7097,1.7089,1.7078,1.7072,1.7063,1.7059,1.7049,1.7044,1.7036,1.7023,1.7019,1.7015,1.7007,1.7009,1.7009,1.7009,1.7009,1.7022,1.7006,1.7006,1.7006,1.7006,0,1.7148,1.7145,1.7127,1.7124,1.7121,1.7107,1.7104,1.7096,1.7085,1.708,1.7067,1.7063,1.7046,1.7039,1.7029,1.7023,1.7021,1.7015,1.7012,1.7016,1.7016,1.7012,1.7011,1.7007,1.7007,1.7006,1.7006,0,1.7164,1.7152,1.7147,1.7131,1.7127,1.7125,1.7112,1.7108,1.7098,1.7092,1.709,1.7074,1.7065,1.7052,1.7039,1.7032,1.7027,1.7023,1.7031,1.703,1.7032,1.7032,1.7043,1.7043,1.7027,1.7028,1.7028,0,1.7172,1.717,1.7154,1.715,1.7143,1.7137,1.7131,1.7117,1.7112,1.7098,1.7096,1.7086,1.7078,1.7064,1.7051,1.7041,1.7036,1.7041,1.7035,1.7038,1.7035,1.7036,1.7035,1.7042,1.7042,1.7042,1.7043,0,1.7186,1.718,1.7172,1.7163,1.7157,1.7148,1.7139,1.7137,1.7121,1.7115,1.7106,1.71,1.7086,1.7076,1.7064,1.7056,1.7046,1.7045,1.7044,1.7048,1.7053,1.7049,1.7035,1.7044,1.7044,1.7044,1.7044,1.7044,1.7197,1.7195,1.7183,1.7175,1.7167,1.7159,1.7155,1.7145,1.7137,1.7126,1.7118,1.7109,1.7097,1.708,1.7072,1.7064,1.706,1.706,1.706,1.706,1.7061,1.7054,1.7062,1.7062,1.7062,1.7062,1.7062,0,1.721,1.7202,1.7195,1.7183,1.7177,1.7169,1.7158,1.7153,1.7146,1.7136,1.7127,1.7117,1.7107,1.7093,1.7083,1.7079,1.7074,1.7077,1.7076,1.7074,1.7066,1.7067,1.7081,1.7081,1.7081,1.7081,1.7081,1.7081,1.7216,1.7211,1.7203,1.7194,1.7185,1.7177,1.7172,1.7164,1.7156,1.7144,1.7136,1.7128,1.7116,1.7104,1.7094,1.7091,1.7087,1.709,1.7085,1.7077,1.7075,1.7074,1.7074,1.709,1.709,1.7095,1.7095,1.7095]}]]